This demonstration page uses our WeatherBlox Daily Observations layout. Learn more.

Left ArrowRight Arrow

Hourly Observations for June 23, 2016

Temp ( °F °C ) Dew Point ( °F °C ) Humidity (%) Winds ( mph kmh ) Pressure ( in mb ) Visibility ( mi km ) Precip ( " mm )
12:54 am 00:54 Clear 69 20.6 59 15 70 70 N 8 13 29.91 1013 10 16.0934 0 0
1:54 am 01:54 Clear 67 19.4 59 15 76 76 N 8 13 29.92 1013 10 16.0934 0 0
2:54 am 02:54 Clear 67 19.4 58 14.4 73 73 N 8 13 29.93 1014 10 16.0934 0 0
3:54 am 03:54 Clear 68 20 56 13.3 65 65 N 9 15 29.95 1014 10 16.0934 0 0
4:54 am 04:54 Clear 62 16.7 57 13.9 84 84 N 9 15 29.96 1015 10 16.0934 0 0
5:54 am 05:54 Clear 64 17.8 56 13.3 75 75 N 7 11 29.99 1016 10 16.0934 0 0
6:54 am 06:54 Sunny 67 19.4 56 13.3 68 68 N 3 6 30.01 1016 10 16.0934 0 0
7:54 am 07:54 Sunny 69 20.6 58 14.4 68 68 N 6 9 30.02 1017 10 16.0934 0 0
8:54 am 08:54 Sunny 73 22.8 57 13.9 57 57 NNE 9 15 30.03 1017 10 16.0934 0 0
9:54 am 09:54 Sunny 74 23.3 57 13.9 56 56 Calm 30.05 1018 10 16.0934 0 0
10:54 am 10:54 Sunny 78 25.6 57 13.9 48 48 NE 8 13 30.06 1018 10 16.0934 0 0
11:54 am 11:54 Sunny 82 28 57 14 42 42 NNW 8 13 30.03 1017 10 16.0934 0 0
12:54 pm 12:54 Sunny 83 28.3 58 14.4 43 43 N 10 17 30.04 1017 10 16.0934 0 0
1:54 pm 13:54 Sunny 82 27.8 58 14.4 44 44 N 9 15 30.04 1017 10 16.0934 0 0
2:54 pm 14:54 Sunny 80 26.7 59 15 49 49 NNE 6 9 30.05 1018 10 16.0934 0 0
3:54 pm 15:54 Sunny 81 27.2 59 15 47 47 N 5 7 30.04 1017 10 16.0934 0 0
4:54 pm 16:54 Sunny 81 27.2 58 14.4 45 45 NE 6 9 30.02 1017 10 16.0934 0 0
5:54 pm 17:54 Sunny 81 27.2 61 16.1 51 51 NE 10 17 29.99 1016 10 16.0934 0 0
6:54 pm 18:54 Sunny 82 27.8 61 16.1 49 49 NE 7 11 29.98 1015 10 16.0934 0 0
7:54 pm 19:54 Sunny 80 26.7 61 16.1 52 52 ENE 5 7 29.98 1015 10 16.0934 0 0
8:54 pm 20:54 Sunny 76 24.4 61 16.1 60 60 ESE 5 7 29.98 1015 10 16.0934 0 0
9:54 pm 21:54 Clear 75 23.9 62 16.7 64 64 ESE 5 7 30 1016 10 16.0934 0 0
10:54 pm 22:54 Clear 74 23.3 62 16.7 67 67 ESE 6 9 29.99 1016 10 16.0934 0 0
11:54 pm 23:54 Clear 70 21.1 62 16.7 76 76 ENE 3 6 30 1016 10 16.0934 0 0

Powered by AerisWeather